カタログに戻る

STARLINK-30707

運用中通信VLEO
NORAD 57949·PAYLOAD·🇺🇸 United States

打ち上げ Sep 25, 2023 から Vandenberg Space Force Base

Loading…

次のパス (今後24時間)

TLE

最新Source: CelesTrak SupGP

元期: Sep 14, 2026, 21:24 UTC

1 57949C 23148Q   26257.89215278  .00037315  00000+0  11023-2 0  2570
2 57949  53.1585 221.8133 0001388  92.8820 188.4916 15.34377740    11

AllMySatでSTARLINK-30707をリアルタイム追跡

Download on the App Store